Location: Sternwarte Stuttgart
(48.7670°N, 9.1830°E)
Time: 11:52:39
(UTC+02:00)

ISS - All Passes

Search period start: 23 July 2014 00:00
Search period end: 02 August 2014 00:00
Orbit: 413 x 420 km, 51.6° (Epoch: 23 July)

Date Brightness Start Highest point End Pass type
(mag) Time Alt. Az. Time Alt. Az. Time Alt. Az.
23 Jul - 03:34:44 10° SW 03:38:00 49° SSE 03:41:16 10° ENE visible
23 Jul - 05:11:25 10° W 05:14:45 57° N 05:18:05 10° ENE daylight
23 Jul - 06:48:26 10° WNW 06:51:46 56° N 06:55:06 10° E daylight
23 Jul - 08:25:15 10° WNW 08:28:32 52° SSW 08:31:49 10° SE daylight
23 Jul - 10:04:03 10° WSW 10:04:39 10° SW 10:05:15 10° SW daylight
24 Jul - 02:46:32 10° SSW 02:49:35 33° SE 02:52:39 10° E visible
24 Jul - 04:22:49 10° W 04:26:11 69° NNW 04:29:33 10° ENE visible
24 Jul - 05:59:53 10° WNW 06:03:11 51° N 06:06:30 10° E daylight
24 Jul - 07:36:42 10° WNW 07:40:05 75° SSW 07:43:26 10° ESE daylight
24 Jul - 09:14:11 10° W 09:16:23 16° SW 09:18:34 10° S daylight
25 Jul - 01:58:34 10° SSW 02:01:13 22° SE 02:03:53 10° E visible
25 Jul - 03:34:17 10° WSW 03:37:39 88° NNW 03:41:02 10° ENE visible
25 Jul - 05:11:18 10° WNW 05:14:36 49° N 05:17:53 10° ENE daylight
25 Jul - 06:48:11 10° WNW 06:51:34 82° NNE 06:54:56 10° ESE daylight
25 Jul - 08:25:14 10° W 08:28:03 25° SW 08:30:51 10° SSE daylight
26 Jul - 01:11:00 10° S 01:12:54 14° SE 01:14:49 10° ESE visible
26 Jul - 02:45:49 10° WSW 02:49:09 68° SSE 02:52:30 10° ENE visible
26 Jul - 04:22:42 10° W 04:26:00 52° N 04:29:19 10° ENE visible
26 Jul - 05:59:39 10° WNW 06:03:01 65° NNE 06:06:22 10° E daylight
26 Jul - 07:36:31 10° WNW 07:39:40 37° SSW 07:42:48 10° SE daylight
27 Jul - 01:57:27 10° SW 02:00:41 46° SSE 02:03:56 10° ENE visible
27 Jul - 03:34:05 10° W 03:37:25 58° N 03:40:45 10° ENE visible
27 Jul - 05:11:07 10° WNW 05:14:26 55° N 05:17:46 10° E visible
27 Jul - 06:47:55 10° WNW 06:51:14 55° SSW 06:54:31 10° SE daylight
27 Jul - 08:26:18 10° WSW 08:27:22 11° SW 08:28:26 10° SSW daylight
28 Jul - 01:09:16 10° SSW 01:12:16 31° SE 01:15:17 10° E visible
28 Jul - 02:45:29 10° WSW 02:48:51 71° NNW 02:52:13 10° ENE visible
28 Jul - 04:22:33 10° WNW 04:25:51 50° N 04:29:09 10° E visible
28 Jul - 05:59:22 10° WNW 06:02:45 78° SSW 06:06:07 10° ESE daylight
28 Jul - 07:36:45 10° W 07:39:04 17° SW 07:41:23 10° S daylight
29 Jul - 00:21:20 10° S 00:23:54 21° SE 00:26:29 10° E visible
29 Jul - 01:56:57 10° WSW 02:00:18 89° SSE 02:03:41 10° ENE visible
29 Jul - 03:33:57 10° WNW 03:37:14 49° N 03:40:32 10° ENE visible
29 Jul - 05:10:50 10° WNW 05:14:13 79° NNE 05:17:35 10° ESE visible
29 Jul - 06:47:51 10° W 06:50:44 26° SW 06:53:35 10° SSE daylight
29 Jul - 23:33:52 10° SSE 23:35:35 13° SE 23:37:18 10° ESE night (unlit)
30 Jul - 01:08:29 10° SW 01:11:48 64° SSE 01:15:08 10° ENE visible
30 Jul - 02:45:20 10° W 02:48:38 52° N 02:51:57 10° ENE visible
30 Jul - 04:22:18 10° WNW 04:25:39 63° NNE 04:29:00 10° E visible
30 Jul - 05:59:09 10° WNW 06:02:19 39° SSW 06:05:29 10° SE daylight
31 Jul - 00:20:08 10° SW 00:23:20 43° SSE 00:26:33 10° ENE visible
31 Jul - 01:56:43 10° W 02:00:02 60° NNW 02:03:23 10° ENE visible
31 Jul - 03:33:45 10° WNW 03:37:04 54° N 03:40:23 10° E visible
31 Jul - 05:10:33 10° WNW 05:13:52 58° SSW 05:17:11 10° SE visible
31 Jul - 06:48:40 10° WSW 06:50:02 12° SW 06:51:24 10° SSW daylight
31 Jul - 23:31:58 10° SSW 23:34:55 29° SE 23:37:52 10° E night (unlit)
01 Aug - 01:08:07 10° WSW 01:11:28 74° NNW 01:14:50 10° ENE visible
01 Aug - 02:45:10 10° WNW 02:48:27 50° N 02:51:45 10° E visible
01 Aug - 04:21:59 10° WNW 04:25:22 82° SSW 04:28:44 10° ESE visible
01 Aug - 05:59:18 10° W 06:01:43 19° SW 06:04:08 10° S daylight
01 Aug - 22:44:05 10° S 22:46:32 19° SE 22:49:01 10° E night (unlit)
